�N����,����,�~����,�C��,���x,�C��,����,���ϕ���,�ő�u�ԕ���,�ő厞����,���˗�,�I�_���x,�n�����x,�ő啗���N��,DTYPE
"20/11/01","00:10",0.0,7.7,91.2,1021.3,288.8,1.7,2.0,299.5,0.00,6.4,13.0,"00:02:16",1
"20/11/01","00:20",0.0,7.7,91.2,1021.3,308.5,1.6,2.7,320.7,0.00,6.4,13.2,"00:12:24",1
"20/11/01","00:30",0.0,7.1,91.3,1021.5,311.2,1.6,2.2,318.8,0.00,5.8,13.0,"00:27:52",1
"20/11/01","00:40",0.0,6.7,91.7,1021.5,310.7,2.1,2.7,324.3,0.00,5.5,13.0,"00:39:44",1
"20/11/01","00:50",0.0,6.4,91.8,1021.3,293.4,1.3,2.1,309.2,0.00,5.2,13.0,"00:40:24",1
"20/11/01","01:00",0.0,6.4,92.1,1021.5,291.7,1.5,1.8,304.9,0.00,5.3,12.9,"00:52:56",1
"20/11/01","01:10",0.0,6.5,92.1,1020.8,292.7,1.2,1.8,313.5,0.00,5.4,12.9,"01:09:48",1
"20/11/01","01:20",0.0,6.4,92.3,1020.8,305.4,1.5,2.2,319.9,0.00,5.3,13.0,"01:16:24",1
"20/11/01","01:30",0.0,6.4,92.6,1020.8,308.6,1.8,2.2,322.5,0.00,5.3,12.8,"01:24:56",1
"20/11/01","01:40",0.0,6.7,92.8,1020.8,301.1,1.7,2.4,307.7,0.00,5.7,12.8,"01:32:40",1
"20/11/01","01:50",0.0,7.3,92.8,1021.1,283.8,1.5,2.1,271.6,0.00,6.3,12.9,"01:48:08",1
"20/11/01","02:00",0.0,8.3,92.6,1020.8,284.3,2.0,3.3,332.1,0.00,7.2,12.8,"01:59:44",1
"20/11/01","02:10",0.0,8.8,92.2,1021.1,286.6,1.6,2.2,294.0,0.00,7.6,12.8,"02:02:48",1
"20/11/01","02:20",0.0,8.7,92.0,1020.8,299.0,1.5,2.1,327.0,0.00,7.5,13.1,"02:18:32",1
"20/11/01","02:30",0.0,8.3,92.0,1020.8,339.1,1.0,2.8,322.0,0.00,7.1,12.7,"02:22:00",1
"20/11/01","02:40",0.0,7.7,92.0,1021.1,297.9,1.1,1.9,265.6,0.00,6.5,12.8,"02:30:56",1
"20/11/01","02:50",0.0,7.2,92.1,1021.1,285.6,1.2,2.6,305.6,0.00,6.0,12.9,"02:48:32",1
"20/11/01","03:00",0.0,7.1,92.3,1021.8,313.3,1.8,2.9,317.7,0.00,6.0,12.8,"02:52:48",1
"20/11/01","03:10",0.0,6.7,92.2,1021.5,291.4,1.5,1.9,318.1,0.00,5.6,12.7,"03:07:20",1
"20/11/01","03:20",0.0,6.6,92.5,1021.1,289.1,1.6,2.0,290.8,0.00,5.5,12.7,"03:14:40",1
"20/11/01","03:30",0.0,6.8,92.5,1021.1,290.5,1.3,2.4,304.6,0.00,5.7,12.6,"03:27:44",1
"20/11/01","03:40",0.0,7.1,92.6,1021.1,292.6,1.2,1.8,282.6,0.00,6.0,12.5,"03:38:32",1
"20/11/01","03:50",0.0,7.3,92.5,1021.1,302.2,1.1,2.2,320.3,0.00,6.2,12.4,"03:44:08",1
"20/11/01","04:00",0.0,7.0,92.4,1021.3,303.8,1.6,2.5,324.1,0.00,5.9,12.6,"03:58:16",1
"20/11/01","04:10",0.0,6.6,92.7,1021.3,306.5,1.3,2.1,328.5,0.00,5.5,12.3,"04:01:28",1
"20/11/01","04:20",0.0,6.2,92.9,1021.3,297.1,1.7,2.4,322.4,0.00,5.2,12.4,"04:19:44",1
"20/11/01","04:30",0.0,6.4,93.0,1020.6,308.3,1.6,2.1,308.4,0.00,5.4,12.5,"04:20:32",1
"20/11/01","04:40",0.0,6.3,93.1,1020.8,292.6,1.2,2.0,316.5,0.00,5.3,12.4,"04:39:52",1
"20/11/01","04:50",0.0,6.4,93.2,1021.1,316.7,1.3,2.4,314.4,0.00,5.4,12.3,"04:46:00",1
"20/11/01","05:00",0.0,6.3,93.2,1020.6,294.6,1.0,2.4,321.8,0.00,5.3,12.3,"04:50:32",1
"20/11/01","05:10",0.0,6.3,93.6,1020.8,317.7,1.7,2.8,322.6,0.00,5.4,12.3,"05:07:52",1
"20/11/01","05:20",0.0,6.7,93.6,1021.1,303.8,1.6,2.4,319.9,0.00,5.8,12.3,"05:16:08",1
"20/11/01","05:30",0.0,6.9,93.6,1020.8,301.9,1.1,1.9,313.2,0.00,6.0,12.5,"05:24:08",1
"20/11/01","05:40",0.0,7.1,93.8,1020.8,290.7,1.5,2.4,304.2,0.00,6.2,12.2,"05:38:00",1
"20/11/01","05:50",0.0,7.6,93.8,1020.6,289.4,1.7,2.4,283.4,0.00,6.7,12.2,"05:47:04",1
"20/11/01","06:00",0.0,7.8,93.8,1020.6,295.3,1.6,2.7,307.3,0.00,6.9,12.4,"05:57:36",1
"20/11/01","06:10",0.0,7.9,93.9,1020.8,300.4,1.6,2.4,306.1,0.00,7.0,12.2,"06:06:32",1
"20/11/01","06:20",0.0,8.1,93.9,1021.5,339.7,0.8,2.2,332.3,0.00,7.2,12.3,"06:12:32",1
"20/11/01","06:30",0.0,7.7,94.1,1021.1,303.8,1.0,1.8,311.2,0.00,6.9,12.2,"06:25:44",1
"20/11/01","06:40",0.0,7.6,94.3,1021.5,301.2,1.2,2.2,298.0,0.00,6.8,12.3,"06:31:44",1
"20/11/01","06:50",0.0,7.5,94.5,1021.1,292.4,1.2,2.0,309.8,0.00,6.7,12.2,"06:48:32",1
"20/11/01","07:00",0.0,8.0,94.5,1021.3,300.6,1.1,1.8,315.3,0.00,7.2,12.2,"06:53:36",1
"20/11/01","07:10",0.0,8.0,94.6,1021.5,309.6,1.8,2.4,312.0,0.01,7.2,12.5,"07:09:28",1
"20/11/01","07:20",0.0,8.5,94.7,1021.3,295.4,1.5,2.7,317.9,0.03,7.7,12.3,"07:11:20",1
"20/11/01","07:30",0.0,9.3,94.7,1021.5,283.1,1.0,1.4,272.4,0.03,8.5,12.3,"07:23:12",1
"20/11/01","07:40",0.0,9.8,94.5,1022.0,300.0,0.7,2.1,309.1,0.02,9.0,12.3,"07:38:56",1
"20/11/01","07:50",0.0,10.4,94.7,1022.0,306.4,1.5,2.2,315.4,0.05,9.6,12.4,"07:40:56",1
"20/11/01","08:00",0.0,11.1,94.6,1022.3,308.5,0.5,1.4,322.0,0.06,10.3,12.6,"07:59:52",1
"20/11/01","08:10",0.0,12.4,94.5,1022.0,310.1,0.7,1.8,319.9,0.12,11.6,12.8,"08:00:16",1
"20/11/01","08:20",0.0,14.0,93.7,1022.3,275.6,0.7,1.6,309.5,0.18,13.0,13.2,"08:14:56",1
"20/11/01","08:30",0.0,15.2,93.3,1022.3,298.4,0.8,1.2,314.7,0.14,14.2,13.3,"08:21:44",1
"20/11/01","08:40",0.0,14.7,92.1,1022.5,261.7,0.5,0.8,273.6,0.13,13.5,13.2,"08:30:40",1
"20/11/01","08:50",0.0,15.4,90.4,1022.5,59.5,0.5,1.1,110.3,0.28,13.9,13.6,"08:47:04",1
"20/11/01","09:00",0.0,16.3,87.5,1022.7,71.8,0.3,1.2,102.8,0.23,14.3,13.8,"08:52:48",1
"20/11/01","09:10",0.0,16.2,82.9,1022.3,262.3,0.5,1.3,246.6,0.12,13.3,14.0,"09:02:56",1
"20/11/01","09:20",0.0,16.6,77.5,1022.3,205.7,0.3,1.2,218.0,0.18,12.7,14.1,"09:14:40",1
"20/11/01","09:30",0.0,17.6,71.6,1022.3,153.6,0.5,1.4,143.2,0.28,12.5,14.5,"09:21:52",1
"20/11/01","09:40",0.0,17.6,67.5,1021.8,184.8,0.6,1.8,189.1,0.18,11.6,14.7,"09:30:24",1
"20/11/01","09:50",0.0,17.9,66.9,1022.0,187.1,0.6,2.2,187.2,0.31,11.7,14.5,"09:44:48",1
"20/11/01","10:00",0.0,18.3,64.4,1021.5,106.6,1.0,2.1,109.6,0.34,11.5,14.8,"09:51:36",1
"20/11/01","10:10",0.0,18.9,62.9,1020.8,135.2,0.8,2.4,112.5,0.39,11.7,15.1,"10:09:36",1
"20/11/01","10:20",0.0,19.2,61.3,1021.1,35.8,0.6,1.6,113.7,0.33,11.6,15.3,"10:10:08",1
"20/11/01","10:30",0.0,19.2,59.5,1020.8,89.9,1.0,2.4,111.2,0.40,11.2,15.6,"10:28:56",1
"20/11/01","10:40",0.0,19.5,60.9,1020.4,132.3,1.1,2.5,100.6,0.42,11.8,15.7,"10:32:16",1
"20/11/01","10:50",0.0,19.5,59.8,1020.4,127.0,1.0,2.1,123.2,0.38,11.5,16.1,"10:48:24",1
"20/11/01","11:00",0.0,20.0,58.5,1020.1,98.9,1.0,2.6,114.1,0.45,11.7,16.3,"10:57:20",1
"20/11/01","11:10",0.0,20.2,56.9,1020.1,62.2,1.0,4.0,104.1,0.45,11.4,16.7,"11:03:28",1
"20/11/01","11:20",0.0,20.5,55.7,1019.7,327.3,1.2,3.4,110.6,0.49,11.4,16.6,"11:11:04",1
"20/11/01","11:30",0.0,20.3,54.2,1019.7,186.4,1.3,2.7,218.8,0.40,10.8,16.8,"11:28:16",1
"20/11/01","11:40",0.0,20.2,55.9,1019.4,252.5,1.0,2.0,349.8,0.23,11.2,16.9,"11:38:24",1
"20/11/01","11:50",0.0,19.8,56.0,1019.2,68.9,0.8,2.0,101.6,0.19,10.8,16.9,"11:43:20",1
"20/11/01","12:00",0.0,19.6,56.8,1018.7,41.8,0.7,1.7,24.5,0.17,10.8,16.7,"11:57:28",1
"20/11/01","12:10",0.0,19.7,56.5,1018.7,357.6,0.8,1.4,67.9,0.15,10.9,17.1,"12:00:16",1
"20/11/01","12:20",0.0,19.5,56.7,1018.5,28.8,0.8,2.1,60.4,0.13,10.7,17.1,"12:17:20",1
"20/11/01","12:30",0.0,19.8,58.1,1018.7,7.0,0.6,1.7,30.4,0.16,11.4,16.9,"12:20:56",1
"20/11/01","12:40",0.0,19.9,57.6,1018.2,34.8,0.8,2.2,70.1,0.21,11.3,16.9,"12:35:12",1
"20/11/01","12:50",0.0,20.4,57.0,1018.2,84.7,0.7,2.6,127.2,0.26,11.6,17.1,"12:41:36",1
"20/11/01","13:00",0.0,20.7,54.9,1017.8,76.9,1.0,2.2,111.9,0.32,11.4,17.2,"12:55:44",1
"20/11/01","13:10",0.0,20.7,56.2,1017.8,159.9,1.0,2.7,175.9,0.32,11.7,17.4,"13:02:40",1
"20/11/01","13:20",0.0,21.2,55.3,1017.8,126.4,1.0,1.8,153.8,0.28,11.9,17.5,"13:12:00",1
"20/11/01","13:30",0.0,21.1,54.7,1017.5,114.7,0.7,1.7,348.6,0.20,11.7,17.5,"13:24:48",1
"20/11/01","13:40",0.0,20.7,55.9,1017.1,153.6,1.0,2.9,121.0,0.19,11.6,17.5,"13:36:32",1
"20/11/01","13:50",0.0,20.7,56.8,1017.1,145.3,1.1,2.1,164.8,0.20,11.9,17.7,"13:43:44",1
"20/11/01","14:00",0.0,20.5,56.5,1017.5,75.2,0.8,1.9,15.6,0.14,11.6,17.8,"13:58:00",1
"20/11/01","14:10",0.0,20.4,56.3,1017.3,104.2,0.8,3.2,108.6,0.18,11.5,17.8,"14:09:36",1
"20/11/01","14:20",0.0,20.3,57.4,1016.6,125.7,1.2,2.6,160.7,0.17,11.7,17.6,"14:14:48",1
"20/11/01","14:30",0.0,20.3,57.3,1016.6,142.2,1.0,2.2,96.4,0.16,11.6,17.6,"14:29:36",1
"20/11/01","14:40",0.0,20.7,56.8,1016.6,115.1,1.1,2.9,155.6,0.20,11.9,17.5,"14:37:28",1
"20/11/01","14:50",0.0,20.2,59.0,1017.1,131.0,1.2,3.5,155.4,0.14,12.0,17.5,"14:42:56",1
"20/11/01","15:00",0.0,20.3,58.9,1016.8,131.6,0.8,2.8,106.3,0.12,12.0,17.8,"14:53:28",1
"20/11/01","15:10",0.0,19.8,59.2,1016.6,101.2,0.7,2.0,107.4,0.05,11.7,17.5,"15:05:52",1
"20/11/01","15:20",0.0,19.8,59.6,1016.6,65.9,0.6,1.6,55.6,0.03,11.8,17.5,"15:10:08",1
"20/11/01","15:30",0.0,19.6,60.3,1016.4,77.1,0.7,1.7,108.5,0.05,11.7,17.4,"15:28:24",1
"20/11/01","15:40",0.0,19.4,60.9,1015.9,65.8,0.6,1.9,109.1,0.05,11.7,17.5,"15:37:36",1
"20/11/01","15:50",0.0,19.3,61.4,1016.1,24.1,0.7,2.5,43.9,0.04,11.7,17.6,"15:48:48",1
"20/11/01","16:00",0.0,19.1,61.9,1016.4,357.0,0.8,1.4,327.6,0.03,11.7,17.5,"15:53:28",1
"20/11/01","16:10",0.0,18.9,62.7,1016.4,344.4,1.1,2.0,339.2,0.01,11.7,17.3,"16:02:56",1
"20/11/01","16:20",0.0,18.7,63.9,1016.6,335.7,1.2,3.1,342.7,0.00,11.8,17.5,"16:10:32",1
"20/11/01","16:30",0.0,18.4,65.1,1017.1,334.7,0.7,1.4,341.7,0.00,11.8,17.2,"16:21:20",1
"20/11/01","16:40",0.0,18.1,65.9,1016.6,328.9,0.1,0.9,5.0,0.00,11.7,17.3,"16:39:36",1
"20/11/01","16:50",0.0,17.8,67.0,1016.8,305.4,0.3,1.4,327.0,0.00,11.6,17.2,"16:46:08",1
"20/11/01","17:00",0.0,17.6,68.4,1017.3,322.6,1.0,1.7,335.6,0.00,11.8,17.0,"16:54:24",1
"20/11/01","17:10",0.0,17.4,69.4,1016.8,303.4,1.1,2.4,340.3,0.00,11.8,17.0,"17:02:08",1
"20/11/01","17:20",0.0,17.2,70.2,1017.5,303.0,0.5,1.3,317.8,0.00,11.8,17.0,"17:19:04",1
"20/11/01","17:30",0.0,16.9,70.7,1017.5,305.2,0.7,1.1,327.6,0.00,11.6,17.0,"17:26:24",1
"20/11/01","17:40",0.0,16.6,71.5,1017.1,303.9,0.5,0.9,319.6,0.00,11.5,16.9,"17:34:16",1
"20/11/01","17:50",0.0,16.4,72.7,1017.5,312.1,0.7,1.0,300.2,0.00,11.5,16.6,"17:47:44",1
"20/11/01","18:00",0.0,16.2,74.4,1017.5,340.6,0.5,1.1,316.2,0.00,11.7,16.7,"17:50:08",1
"20/11/01","18:10",0.0,15.7,76.1,1016.8,312.7,0.6,1.2,324.6,0.00,11.5,16.7,"18:03:12",1
"20/11/01","18:20",0.0,15.5,78.2,1017.5,334.9,1.2,2.2,333.3,0.00,11.8,16.5,"18:16:08",1
"20/11/01","18:30",0.0,15.2,79.5,1017.5,332.4,0.8,1.8,331.9,0.00,11.7,16.5,"18:23:52",1
"20/11/01","18:40",0.0,15.1,80.2,1017.8,304.6,0.8,1.3,310.8,0.00,11.8,16.4,"18:39:36",1
"20/11/01","18:50",0.0,15.1,80.8,1017.8,303.9,1.0,1.8,310.8,0.00,11.9,16.4,"18:40:56",1
"20/11/01","19:00",0.0,14.9,81.1,1018.0,287.7,0.6,1.0,304.3,0.00,11.7,16.4,"18:54:40",1
"20/11/01","19:10",0.0,14.7,81.5,1017.5,306.2,1.0,1.3,313.4,0.00,11.6,16.5,"19:09:20",1
"20/11/01","19:20",0.0,14.5,81.9,1017.8,300.2,1.1,1.7,325.6,0.00,11.5,16.4,"19:13:20",1
"20/11/01","19:30",0.0,14.2,82.3,1017.3,300.5,0.6,1.2,342.1,0.00,11.3,16.2,"19:21:20",1
"20/11/01","19:40",0.0,13.9,83.2,1017.8,313.0,1.1,2.1,339.8,0.00,11.1,16.0,"19:37:54",1
"20/11/01","19:50",0.0,13.6,84.0,1017.3,304.7,0.7,1.3,343.6,0.00,11.0,16.0,"19:40:40",1
"20/11/01","20:00",0.0,13.5,84.7,1017.3,287.8,0.7,1.2,293.2,0.00,11.0,15.8,"19:58:48",1
"20/11/01","20:10",0.0,13.8,85.2,1017.5,272.7,1.1,1.7,284.5,0.00,11.4,15.8,"20:03:44",1
"20/11/01","20:20",0.0,14.0,85.3,1017.3,306.4,0.8,1.3,315.7,0.00,11.6,16.0,"20:19:20",1
"20/11/01","20:30",0.0,13.7,85.3,1017.1,291.4,0.8,1.4,322.8,0.00,11.3,15.8,"20:21:12",1
"20/11/01","20:40",0.0,13.6,85.6,1017.3,307.5,1.1,1.9,298.1,0.00,11.3,15.9,"20:30:48",1
"20/11/01","20:50",0.0,13.5,85.8,1017.3,308.4,1.0,1.6,318.5,0.00,11.2,16.0,"20:43:44",1
"20/11/01","21:00",0.0,13.6,86.1,1017.5,320.5,1.1,1.6,332.6,0.00,11.4,15.8,"20:56:08",1
"20/11/01","21:10",0.0,13.6,86.0,1017.5,308.1,1.0,1.7,328.8,0.00,11.3,15.9,"21:08:42",1
"20/11/01","21:20",0.0,13.7,86.2,1017.3,311.4,0.6,1.3,273.1,0.00,11.5,15.7,"21:14:16",1
"20/11/01","21:30",0.0,13.4,86.3,1017.3,316.8,0.3,1.0,296.1,0.00,11.2,15.7,"21:26:16",1
"20/11/01","21:40",0.0,13.2,86.5,1017.1,317.3,1.2,1.9,318.6,0.00,11.0,15.7,"21:35:42",1
"20/11/01","21:50",0.0,13.0,86.9,1017.5,296.2,0.7,1.1,320.8,0.00,10.9,15.5,"21:40:24",1
"20/11/01","22:00",0.0,13.1,87.3,1017.3,329.7,1.3,2.1,329.7,0.00,11.1,15.6,"21:54:30",1
"20/11/01","22:10",0.0,12.9,87.5,1017.3,301.9,1.0,1.9,323.1,0.00,10.9,15.6,"22:00:46",1
"20/11/01","22:20",0.0,12.9,87.9,1017.3,287.3,0.7,1.3,259.2,0.00,11.0,15.3,"22:12:32",1
"20/11/01","22:30",0.0,12.7,88.1,1017.3,312.4,1.1,1.8,314.4,0.00,10.8,15.4,"22:22:30",1
"20/11/01","22:40",0.0,12.4,88.3,1016.8,324.3,1.3,1.7,318.8,0.00,10.6,15.2,"22:32:56",1
"20/11/01","22:50",0.0,11.9,88.7,1017.1,281.2,0.8,1.1,307.3,0.00,10.1,14.9,"22:49:50",1
"20/11/01","23:00",0.0,11.8,89.1,1017.3,311.5,1.1,1.6,317.9,0.00,10.1,15.3,"22:53:56",1
"20/11/01","23:10",0.0,11.9,89.3,1017.1,322.7,1.1,1.6,342.3,0.00,10.2,15.2,"23:04:42",1
"20/11/01","23:20",0.0,11.7,89.5,1016.6,289.5,0.7,1.0,280.0,0.00,10.1,15.3,"23:11:20",1
"20/11/01","23:30",0.0,11.8,89.8,1016.6,316.3,0.7,1.6,324.1,0.00,10.2,15.2,"23:29:06",1
"20/11/01","23:40",0.0,12.2,90.2,1016.6,328.5,1.2,1.8,329.2,0.00,10.7,15.2,"23:32:34",1
"20/11/01","23:50",0.0,12.5,90.3,1016.6,286.8,0.5,0.9,312.8,0.00,11.0,15.2,"23:46:34",1
"20/11/01","24:00",0.0,12.6,90.4,1016.6,305.0,0.6,1.1,314.0,0.00,11.1,15.1,"23:53:00",1
